Voltar ao catálogo

CZ-4C DEB

AtivoLEO
NORAD 47534·DEBRIS·🇨🇳 China

Lançado Jan 29, 2021 de Jiuquan Satellite Launch Center

Loading…

Próximas Passagens (próximas 24 horas)

TLE

AtualizadoSource: Space-Track

Época: Sep 14, 2026, 11:25 UTC

1 47534U 21007C   26257.47588856 -.00000019  00000-0  10894-3 0  9992
2 47534  63.4029 281.5608 0183569   2.2837 357.8985 13.44642072276017

Acompanhe CZ-4C DEB em tempo real com AllMySat

Download on the App Store